Destin, FL

7:51 AM CDT on May 25, 2017 (GMT -0500)
Destin-Fort Walton Beach

Weather History for KDTS - January, 2013

Change the Weather History Date:

Friday, January 4, 2013

  Actual Average Record
Temperature  
Mean Temperature 48 °F -  
Max Temperature 57 °F 58 °F 73 °F (1997)
Min Temperature 39 °F 43 °F 25 °F (1999)
Degree Days  
Heating Degree Days 17    
Moisture  
Dew Point 33 °F    
Average Humidity 59    
Maximum Humidity 74    
Minimum Humidity 40    
Precipitation  
Precipitation 0.00 in - - ()
Sea Level Pressure  
Sea Level Pressure 30.35 in    
Wind  
Wind Speed 8 mph (North)    
Max Wind Speed 12 mph    
Max Gust Speed -    
Visibility 10 miles    
Events      
Averages and records for this station are not official NWS values.
T = Trace of Precipitation, MM = Missing Value Source: NWS Daily Summary

Daily Weather History Graph

Daily Weather History Graph

Search for Another Location

Airport or City:

Trip Planner

Search our weather history database for the weather conditions in past years. The results will help you decide how hot, cold, wet, or windy it might be!

Date:

Astronomy

Jan. 04, 2013 Rise Set
Actual Time 6:43 AM CST 4:58 PM CST
Civil Twilight 6:17 AM CST 5:25 PM CST
Nautical Twilight 5:47 AM CST 5:54 PM CST
Astronomical Twilight 5:17 AM CST 6:24 PM CST
Moon No Moon Rise 10:57 AM CST (1/4)
Length of Visible Light 11h 08m
Length of Day
10h 15m
Waning Gibbous, 55% of the Moon is Illuminated
Jan 4
Waning Gibbous
Jan 4
Last Quarter
Jan 11
New
Jan 18
First Quarter
Jan 26
Full

Hourly Weather History & Observations

Time (CST) Temp. Windchill Dew Point Humidity Pressure Visibility Wind Dir Wind Speed Gust Speed Precip Events Conditions
12:53 AM 42.1 °F 35.7 °F 33.1 °F 70% 30.32 in 10.0 mi North 11.5 mph - N/A   Clear
1:53 AM 42.1 °F 35.7 °F 32.0 °F 67% 30.32 in 10.0 mi North 11.5 mph - N/A   Clear
2:53 AM 42.1 °F 36.1 °F 32.0 °F 67% 30.31 in 10.0 mi NNE 10.4 mph - N/A   Clear
3:53 AM 41.0 °F 34.3 °F 32.0 °F 70% 30.30 in 10.0 mi North 11.5 mph - N/A   Clear
4:53 AM 41.0 °F 35.8 °F 30.9 °F 67% 30.31 in 10.0 mi NNE 8.1 mph - N/A   Clear
5:53 AM 39.9 °F 35.1 °F 30.9 °F 70% 30.35 in 10.0 mi North 6.9 mph - N/A   Clear
6:53 AM 39.0 °F 34.8 °F 30.9 °F 73% 30.37 in 10.0 mi North 5.8 mph - N/A   Clear
7:53 AM 39.9 °F 34.5 °F 32.0 °F 73% 30.38 in 10.0 mi North 8.1 mph - N/A   Clear
8:53 AM 45.0 °F 41.2 °F 30.9 °F 58% 30.38 in 10.0 mi NE 6.9 mph - N/A   Clear
9:53 AM 45.0 °F 40.6 °F 30.9 °F 58% 30.39 in 10.0 mi NNE 8.1 mph - N/A   Clear
10:53 AM 48.9 °F - 33.1 °F 54% 30.39 in 10.0 mi North 6.9 mph - N/A   Clear
11:53 AM 51.1 °F - 34.0 °F 52% 30.37 in 10.0 mi NNW 4.6 mph - N/A   Clear
12:53 PM 55.0 °F - 33.1 °F 43% 30.34 in 10.0 mi North 8.1 mph - N/A   Clear
1:53 PM 55.9 °F - 32.0 °F 40% 30.32 in 10.0 mi NNE 6.9 mph - N/A   Clear
2:53 PM 57.0 °F - 33.1 °F 40% 30.31 in 10.0 mi North 6.9 mph - N/A   Clear
3:53 PM 55.0 °F - 34.0 °F 45% 30.32 in 10.0 mi North 4.6 mph - N/A   Clear
4:53 PM 53.1 °F - 34.0 °F 48% 30.33 in 10.0 mi North 4.6 mph - N/A   Clear
5:53 PM 48.9 °F - 37.9 °F 66% 30.34 in 10.0 mi Calm Calm - N/A   Clear
6:53 PM 50.0 °F - 37.9 °F 63% 30.37 in 10.0 mi Calm Calm - N/A   Clear
7:53 PM 48.0 °F - 39.9 °F 74% 30.38 in 10.0 mi Calm Calm - N/A   Clear
8:53 PM 48.9 °F - 36.0 °F 61% 30.37 in 10.0 mi North 4.6 mph - N/A   Clear
9:53 PM 50.0 °F - 33.1 °F 52% 30.36 in 10.0 mi North 5.8 mph - N/A   Clear
10:53 PM 48.9 °F - 33.1 °F 54% 30.36 in 10.0 mi North 4.6 mph - N/A   Clear
11:53 PM 48.9 °F - 32.0 °F 52% 30.34 in 10.0 mi Calm Calm - N/A   Clear